Weather History for Staunton, VA

Change the Weather History Date:

Wednesday, November 21, 2012

  Actual Average Record
Temperature  
Mean Temperature 42 °F -  
Max Temperature 56 °F 55 °F 73 °F (1999)
Min Temperature 28 °F 32 °F 23 °F (2001)
Degree Days  
Heating Degree Days 24    
Moisture  
Dew Point 32 °F    
Average Humidity 81    
Maximum Humidity 96    
Minimum Humidity 45    
Precipitation  
Precipitation 0.00 in - - ()
Sea Level Pressure  
Sea Level Pressure 30.20 in    
Wind  
Wind Speed 1 mph (ENE)    
Max Wind Speed 9 mph    
Max Gust Speed -    
Visibility 5 miles    
Events Fog    
Averages and records for this station are not official NWS values.
T = Trace of Precipitation, MM = Missing Value Source: NWS Daily Summary

Daily Weather History Graph

Daily Weather History Graph

Search for Another Location

Airport:

Trip Planner

Search our weather history database for the weather conditions in past years. The results will help you decide how hot, cold, wet, or windy it might be!

Date:

Astronomy

Nov. 21, 2012 Rise Set
Actual Time 7:03 AM EST 4:59 PM EST
Civil Twilight 6:35 AM EST 5:27 PM EST
Nautical Twilight 6:02 AM EST 5:59 PM EST
Astronomical Twilight 5:31 AM EST 6:31 PM EST
Moon 1:09 PM EST (11/21) 12:26 AM EST (11/21)
Length of Visible Light 10h 52m
Length of Day
9h 55m
First Quarter, 61% of the Moon is Illuminated
Nov 21
First Quarter
Nov 28
Full
Dec 6
Last Quarter
Dec 13
New
Dec 20
First Quarter

Hourly Weather History & Observations

Time (EST) Temp. Windchill Dew Point Humidity Pressure Visibility Wind Dir Wind Speed Gust Speed Precip Events Conditions
12:15 AM 31.1 °F - 29.3 °F 93% 30.15 in 0.5 mi Calm Calm - N/A Fog Light Freezing Fog
12:35 AM 31.1 °F - 29.3 °F 93% 30.15 in 1.0 mi Calm Calm - N/A   Mostly Cloudy
12:55 AM 30.2 °F - 28.8 °F 94% 30.15 in 1.0 mi Calm Calm - N/A   Overcast
1:15 AM 29.3 °F - 27.9 °F 94% 30.15 in 0.5 mi Calm Calm - N/A Fog Light Freezing Fog
1:35 AM 28.9 °F - 27.5 °F 94% 30.15 in 0.5 mi Calm Calm - N/A Fog Light Freezing Fog
1:55 AM 28.8 °F - 27.3 °F 94% 30.15 in 0.2 mi Calm Calm - N/A Fog Light Freezing Fog
2:15 AM 29.3 °F - 28.0 °F 95% 30.15 in 0.8 mi Calm Calm - N/A   Overcast
2:35 AM 28.9 °F - 27.3 °F 94% 30.16 in 0.8 mi Calm Calm - N/A   Overcast
2:55 AM 28.2 °F - 26.8 °F 94% 30.16 in 1.0 mi Calm Calm - N/A   Overcast
3:15 AM 28.2 °F - 26.6 °F 94% 30.16 in 0.2 mi Calm Calm - N/A Fog Light Freezing Fog
3:35 AM 28.4 °F - 26.8 °F 94% 30.16 in 0.2 mi Calm Calm - N/A Fog Light Freezing Fog
3:55 AM 28.8 °F - 27.1 °F 94% 30.16 in 0.2 mi Calm Calm - N/A Fog Light Freezing Fog
4:15 AM 29.3 °F - 27.9 °F 94% 30.16 in 0.8 mi Calm Calm - N/A   Overcast
4:35 AM 30.2 °F - 28.9 °F 95% 30.16 in 0.2 mi Calm Calm - N/A Fog Light Freezing Fog
4:55 AM 30.2 °F - 28.8 °F 94% 30.16 in 0.2 mi Calm Calm - N/A Fog Light Freezing Fog
5:15 AM 30.2 °F - 28.8 °F 94% 30.17 in 0.2 mi Calm Calm - N/A Fog Light Freezing Fog
5:35 AM 30.0 °F - 28.4 °F 94% 30.17 in 0.2 mi Calm Calm - N/A Fog Light Freezing Fog
5:55 AM 30.0 °F - 28.4 °F 94% 30.18 in 0.2 mi Calm Calm - N/A Fog Light Freezing Fog
6:15 AM 29.8 °F - 28.4 °F 94% 30.19 in 0.2 mi Calm Calm - N/A Fog Light Freezing Fog
6:35 AM 29.7 °F - 28.2 °F 94% 30.19 in 0.2 mi Calm Calm - N/A Fog Light Freezing Fog
7:15 AM 30.2 °F - 28.9 °F 95% 30.20 in 0.2 mi Calm Calm - N/A Fog Light Freezing Fog
7:35 AM 30.6 °F - 29.1 °F 94% 30.21 in 0.2 mi Calm Calm - N/A Fog Light Freezing Fog
7:55 AM 30.7 °F - 29.3 °F 94% 30.21 in 0.2 mi Calm Calm - N/A Fog Light Freezing Fog
8:15 AM 31.1 °F - 29.8 °F 95% 30.22 in 0.2 mi Calm Calm - N/A Fog Light Freezing Fog
8:35 AM 32.0 °F - 30.9 °F 96% 30.22 in 0.2 mi Calm Calm - N/A Fog Fog
8:55 AM 32.0 °F - 31.1 °F 96% 30.23 in 0.2 mi Calm Calm - N/A Fog Fog
9:15 AM 32.7 °F - 31.8 °F 96% 30.23 in 0.2 mi Calm Calm - N/A Fog Fog
9:35 AM 33.3 °F - 32.0 °F 95% 30.23 in 0.2 mi Calm Calm - N/A Fog Fog
9:55 AM 33.8 °F - 32.5 °F 95% 30.23 in 0.2 mi Calm Calm - N/A Fog Fog
10:15 AM 34.9 °F - 33.6 °F 95% 30.23 in 0.2 mi Calm Calm - N/A Fog Fog
10:35 AM 36.1 °F - 34.7 °F 94% 30.23 in 0.2 mi Calm Calm - N/A Fog Fog
10:55 AM 37.6 °F - 36.3 °F 95% 30.23 in 0.2 mi Calm Calm - N/A Fog Fog
11:15 AM 39.2 °F - 38.1 °F 96% 30.22 in 0.2 mi Calm Calm - N/A Fog Fog
11:35 AM 40.6 °F - 39.2 °F 95% 30.21 in 2.0 mi Calm Calm - N/A   Overcast
11:55 AM 42.3 °F - 41.0 °F 95% 30.20 in 4.0 mi Calm Calm - N/A   Scattered Clouds
12:15 PM 47.1 °F - 42.6 °F 84% 30.20 in 7.0 mi ENE 3.5 mph - N/A   Clear
12:35 PM 50.4 °F - 38.8 °F 65% 30.19 in 10.0 mi ENE 6.9 mph - N/A   Clear
12:55 PM 51.8 °F - 37.0 °F 57% 30.19 in 10.0 mi ENE 8.1 mph - N/A   Clear
1:15 PM 53.1 °F - 37.4 °F 55% 30.18 in 10.0 mi East 6.9 mph - N/A   Clear
1:35 PM 54.0 °F - 36.9 °F 52% 30.17 in 10.0 mi East 9.2 mph - N/A   Clear
1:55 PM 54.7 °F - 36.1 °F 50% 30.17 in 10.0 mi East 8.1 mph - N/A   Clear
2:15 PM 55.4 °F - 35.6 °F 47% 30.17 in 10.0 mi ENE 6.9 mph - N/A   Clear
2:35 PM 55.6 °F - 35.1 °F 46% 30.17 in 10.0 mi ENE 5.8 mph - N/A   Clear
2:55 PM 55.9 °F - 34.9 °F 45% 30.17 in 10.0 mi Calm Calm - N/A   Clear
3:15 PM 55.9 °F - 34.9 °F 45% 30.17 in 10.0 mi Calm Calm - N/A   Clear
3:35 PM 55.9 °F - 34.5 °F 45% 30.17 in 10.0 mi ENE 5.8 mph - N/A   Clear
3:55 PM 55.4 °F - 35.2 °F 47% 30.17 in 10.0 mi ENE 5.8 mph - N/A   Clear
4:15 PM 54.1 °F - 35.1 °F 49% 30.17 in 10.0 mi NE 3.5 mph - N/A   Clear
4:35 PM 51.8 °F - 34.7 °F 52% 30.17 in 10.0 mi ENE 4.6 mph - N/A   Clear
4:55 PM 50.4 °F - 34.7 °F 55% 30.18 in 10.0 mi Calm Calm - N/A   Clear
5:15 PM 51.6 °F - 34.5 °F 52% 30.18 in 10.0 mi North 3.5 mph - N/A   Clear
5:35 PM 44.2 °F - 34.2 °F 68% 30.19 in 10.0 mi Calm Calm - N/A   Clear
5:55 PM 44.1 °F - 34.2 °F 68% 30.20 in 10.0 mi Calm Calm - N/A   Clear
6:15 PM 43.2 °F - 34.3 °F 71% 30.20 in 10.0 mi Calm Calm - N/A   Clear
6:35 PM 40.1 °F - 32.4 °F 74% 30.21 in 10.0 mi Calm Calm - N/A   Clear
6:55 PM 39.9 °F - 32.7 °F 75% 30.21 in 10.0 mi Calm Calm - N/A   Clear
7:15 PM 39.6 °F 37.4 °F 32.7 °F 76% 30.22 in 10.0 mi NNW 3.5 mph - N/A   Clear
7:35 PM 39.0 °F - 32.4 °F 77% 30.23 in 10.0 mi Calm Calm - N/A   Clear
7:55 PM 39.2 °F - 32.2 °F 76% 30.23 in 10.0 mi Calm Calm - N/A   Clear
8:15 PM 37.0 °F - 30.9 °F 79% 30.23 in 10.0 mi Calm Calm - N/A   Clear
8:35 PM 36.9 °F - 31.6 °F 81% 30.23 in 10.0 mi Calm Calm - N/A   Clear
8:55 PM 36.1 °F - 31.8 °F 84% 30.23 in 10.0 mi Calm Calm - N/A   Clear
9:15 PM 35.1 °F - 31.6 °F 87% 30.24 in 7.0 mi Calm Calm - N/A   Clear
9:35 PM 34.5 °F - 31.1 °F 87% 30.24 in 7.0 mi Calm Calm - N/A   Clear
9:55 PM 32.9 °F - 29.3 °F 87% 30.24 in 7.0 mi Calm Calm - N/A   Clear
10:15 PM 32.7 °F - 29.5 °F 88% 30.24 in 7.0 mi Calm Calm - N/A   Clear
10:35 PM 32.0 °F - 29.7 °F 91% 30.23 in 7.0 mi Calm Calm - N/A   Clear
10:55 PM 32.0 °F - 29.7 °F 91% 30.23 in 5.0 mi Calm Calm - N/A   Clear
11:15 PM 31.1 °F - 27.9 °F 88% 30.23 in 7.0 mi Calm Calm - N/A   Clear
11:35 PM 31.1 °F - 28.0 °F 88% 30.24 in 5.0 mi Calm Calm - N/A   Clear
11:55 PM 31.3 °F - 28.8 °F 90% 30.25 in 4.0 mi Calm Calm - N/A   Clear